| time (UTC) | temp C | wind direction | speed KPH | gust KPH | rain 1hr cm | rain 24hr cm | rain mn cm | humidity % | barometer mb |
| 20260504081520 | 1 | 348 | 0.0 | 3.2 | 0.00 | 0.00 | 0.00 | 91 | 1015.9 |
| 20260504050009 | 2 | 348 | 0.0 | 3.2 | 0.00 | 0.00 | 0.00 | 87 | 1015.8 |
| 20260504044514 | 2 | 348 | 0.0 | 3.2 | 0.00 | 0.00 | 0.00 | 86 | 1015.7 |
| 20260504043010 | 2 | 348 | 0.0 | 3.2 | 0.00 | 0.00 | 0.00 | 84 | 1015.7 |
| 20260504041511 | 3 | 348 | 0.0 | 1.6 | 0.00 | 0.00 | 0.00 | 84 | 1015.7 |
| 20260504040015 | 3 | 348 | 0.0 | 0.0 | 0.00 | 0.00 | 0.00 | 83 | 1015.5 |
| 20260504034516 | 3 | 348 | 0.0 | 3.2 | 0.00 | 0.00 | 0.00 | 82 | 1015.5 |
| 20260504033015 | 3 | 348 | 0.0 | 3.2 | 0.00 | 0.00 | 0.00 | 82 | 1015.4 |
| 20260504031516 | 3 | 348 | 0.0 | 0.0 | 0.00 | 0.00 | 0.00 | 81 | 1015.3 |
| 20260504030017 | 4 | 348 | 0.0 | 3.2 | 0.00 | 0.00 | 0.00 | 79 | 1015.2 |
| 20260504024520 | 4 | 348 | 0.0 | 0.0 | 0.00 | 0.00 | 0.00 | 78 | 1015.1 |
| 20260504023020 | 5 | 348 | 0.0 | 0.0 | 0.00 | 0.00 | 0.00 | 77 | 1015.1 |
| 20260504021521 | 5 | 348 | 0.0 | 3.2 | 0.00 | 0.00 | 0.00 | 76 | 1015.2 |
| 20260504020028 | 6 | 348 | 0.0 | 3.2 | 0.00 | 0.00 | 0.00 | 75 | 1015.1 |
| 20260504014538 | 6 | 348 | 0.0 | 0.0 | 0.00 | 0.00 | 0.00 | 72 | 1015.0 |
| 20260504013024 | 7 | 348 | 0.0 | 3.2 | 0.00 | 0.00 | 0.00 | 73 | 1015.0 |
| 20260504011522 | 7 | 348 | 0.0 | 3.2 | 0.00 | 0.00 | 0.00 | 69 | 1014.9 |
| 20260504010025 | 8 | 348 | 0.0 | 3.2 | 0.00 | 0.00 | 0.00 | 65 | 1014.8 |
| 20260504004524 | 8 | 348 | 0.0 | 3.2 | 0.00 | 0.00 | 0.00 | 61 | 1014.6 |
| 20260504003024 | 10 | 348 | 0.0 | 3.2 | 0.00 | 0.00 | 0.00 | 55 | 1014.4 |
| 20260504001526 | 12 | 323 | 1.6 | 4.8 | 0.00 | 0.00 | 0.00 | 44 | 1014.2 |
| 20260504000038 | 13 | 252 | 1.6 | 9.7 | 0.00 | 0.00 | 0.00 | 41 | 1014.0 |
| 20260503234508 | 13 | 300 | 3.2 | 8.0 | 0.00 | 0.00 | 0.00 | 39 | 1013.9 |
| 20260503233008 | 14 | 334 | 3.2 | 14.5 | 0.00 | 0.00 | 0.00 | 37 | 1013.8 |
| 20260503231503 | 15 | 301 | 3.2 | 16.1 | 0.00 | 0.00 | 0.00 | 36 | 1013.7 |
| 20260503230005 | 15 | 290 | 6.4 | 16.1 | 0.00 | 0.00 | 0.00 | 35 | 1013.6 |
| 20260503224504 | 15 | 274 | 6.4 | 14.5 | 0.00 | 0.00 | 0.00 | 35 | 1013.6 |
| 20260503223005 | 15 | 196 | 4.8 | 20.9 | 0.00 | 0.00 | 0.00 | 34 | 1013.5 |
| 20260503221503 | 15 | 221 | 6.4 | 14.5 | 0.00 | 0.00 | 0.00 | 34 | 1013.5 |
| 20260503220005 | 15 | 288 | 6.4 | 16.1 | 0.00 | 0.00 | 0.00 | 36 | 1013.7 |
| 20260503214515 | 15 | 273 | 6.4 | 20.9 | 0.00 | 0.00 | 0.00 | 33 | 1013.8 |
| 20260503213003 | 16 | 352 | 4.8 | 19.3 | 0.00 | 0.00 | 0.00 | 35 | 1013.7 |
| 20260503211504 | 16 | 238 | 6.4 | 16.1 | 0.00 | 0.00 | 0.00 | 33 | 1013.5 |
| 20260503210018 | 16 | 300 | 8.0 | 17.7 | 0.00 | 0.00 | 0.00 | 32 | 1013.5 |
| 20260503204510 | 15 | 262 | 11.3 | 20.9 | 0.00 | 0.00 | 0.00 | 34 | 1013.5 |
| 20260503203004 | 15 | 225 | 6.4 | 20.9 | 0.00 | 0.00 | 0.00 | 32 | 1013.6 |
| 20260503201508 | 15 | 307 | 8.0 | 20.9 | 0.00 | 0.00 | 0.00 | 35 | 1013.8 |
| 20260503200004 | 16 | 303 | 9.7 | 24.1 | 0.00 | 0.00 | 0.00 | 34 | 1013.9 |
| 20260503194506 | 15 | 321 | 4.8 | 27.4 | 0.00 | 0.00 | 0.00 | 34 | 1014.0 |
| 20260503193006 | 15 | 202 | 4.8 | 19.3 | 0.00 | 0.00 | 0.00 | 1014.2 | |
| 20260503191508 | 15 | 312 | 4.8 | 22.5 | 0.00 | 0.00 | 0.00 | 40 | 1014.6 |
| 20260503190005 | 15 | 288 | 9.7 | 30.6 | 0.00 | 0.00 | 0.00 | 37 | 1014.8 |
| 20260503184508 | 14 | 326 | 12.9 | 25.7 | 0.00 | 0.00 | 0.00 | 34 | 1014.9 |
| 20260503183007 | 15 | 352 | 8.0 | 24.1 | 0.00 | 0.00 | 0.00 | 37 | 1015.0 |
| 20260503181506 | 13 | 256 | 8.0 | 24.1 | 0.00 | 0.00 | 0.00 | 39 | 1015.0 |
| 20260503180008 | 13 | 217 | 9.7 | 33.8 | 0.00 | 0.00 | 0.00 | 41 | 1015.1 |
| 20260503174509 | 13 | 314 | 11.3 | 25.7 | 0.00 | 0.00 | 0.00 | 37 | 1015.2 |
| 20260503173007 | 13 | 269 | 11.3 | 25.7 | 0.00 | 0.00 | 0.00 | 37 | 1015.4 |
| 20260503171508 | 13 | 277 | 6.4 | 25.7 | 0.00 | 0.00 | 0.00 | 39 | 1015.3 |